Regional Weather Roundup
Issued by NWS

Home | Current Version | Previous Version | Graphics & Text | Print | Product List | Glossary On
Versions: 1 2 3 4 5 6 7 8 9 10 11 12 13 14 15 16 17 18 19 20 21 22 23 24 25 26 27 28 29 30 31 32 33 34 35 36 37 38 39 40 41 42 43 44 45 46 47 48 49 50
000
ASUS43 KIND 200400
RWRIN

WEATHER ROUNDUP FOR INDIANA
NATIONAL WEATHER SERVICE INDIANAPOLIS IN
1200 AM EDT THU JUL 20 2017

NOTE: "FAIR" INDICATES FEW OR NO CLOUDS BELOW 12,000 FEET WITH NO
SIGNIFICANT WEATHER AND/OR OBSTRUCTIONS TO VISIBILITY.

* - STATION DOES NOT REPORT WEATHER SUCH AS PRECIPITATION OR FOG.

+ - STATION NOT QUALITY CONTROLLED BY THE NATIONAL WEATHER SERVICE.
    USE DATA WITH CAUTION...ESPECIALLY DEWPOINT AND RELATIVE
    HUMIDITY OBSERVATIONS.

INZ001>003-010>013-019-020-200500-
NORTHWEST INDIANA

CITY           SKY/WX    TMP DP  RH WIND       PRES   REMARKS
GARY /AIRPORT/ RAIN      73  67  80 NW6       30.12R
KNOX *+        CLOUDY    73  68  83 CALM      30.07F
MICHIGAN CITY+ CLOUDY    72  70  94 CALM      30.09S
MONTICELLO +   CLEAR     78  75  89 SW3       30.08S
RENSSELAER +   MOCLDY    77  73  88 W20G36    30.12R

$$

LMZ046-743>745-200500-
SOUTHERN LAKE MICHIGAN

STATION/POSITION TIME  TEMP    WIND        PRES    WAVE
                       AIR SEA DIR/SP/G            HT
                 (UTC) (F)     (DEG/KT/KT) (MB)    (FT)
BURNS HARBOR     0340   74     330/  4/  5 1019.6R
MICHIGAN CITY    0330   74      20/  2/  3   N/A
5NW MICH CITY    0350   74 75  330/  4/ 12   N/A     1

$$

INZ004-005-014>016-021>024-200500-
NORTH CENTRAL INDIANA

CITY           SKY/WX    TMP DP  RH WIND       PRES   REMARKS
GOSHEN         PTCLDY    75  70  84 S3        30.08
SOUTH BEND     MOCLDY    75  72  90 CALM      30.08S
WARSAW +       PTCLDY    77  73  88 CALM      30.09S

$$

INZ006>009-017-018-025>027-200500-
NORTHEAST INDIANA

CITY           SKY/WX    TMP DP  RH WIND       PRES   REMARKS
ANGOLA *+      CLEAR     73  66  78 CALM      30.09R
FORT WAYNE     CLOUDY    75  71  87 W6        30.10R
KENDALLVILLE + CLOUDY    75  73  91 CALM      30.10R

$$

INZ028-029-035-036-043>045-051>053-200500-
WEST CENTRAL INDIANA

CITY           SKY/WX    TMP DP  RH WIND       PRES   REMARKS
LAFAYETTE      CLEAR     76  74  93 CALM      30.09R
TERRE HAUTE    CLEAR     74  72  93 CALM      30.10R

$$

INZ030>032-037>040-046>048-054>057-064-065-200500-
CENTRAL INDIANA

CITY           SKY/WX    TMP DP  RH WIND       PRES   REMARKS
FRANKFORT +    MOCLDY    76  74  95 CALM      30.13R FOG
INDIANAPOLIS   CLEAR     78  72  81 W3        30.10R
-EAGLE CREEK   CLEAR     79  72  79 CALM      30.11R
KOKOMO +       PTCLDY    77  73  87 S3        30.11R
MT COMFORT *+  CLEAR     75  72  88 CALM      30.11R
SHELBYVILLE    CLEAR     75  69  81 CALM      30.11R

$$

INZ033-034-041-042-049-050-058-059-200500-
EAST CENTRAL INDIANA

CITY           SKY/WX    TMP DP  RH WIND       PRES   REMARKS
MUNCIE         CLEAR     79  71  76 SW6       30.10R
RICHMOND +     CLEAR     70  68  94 W3        30.12S

$$

INZ060-061-067>069-081>083-085>088-200500-
SOUTHWEST INDIANA

CITY           SKY/WX    TMP DP  RH WIND       PRES   REMARKS
EVANSVILLE     CLEAR     81  73  76 CALM      30.09R
HUNTINGBURG *+ CLEAR     74  73  97 CALM      30.10R

$$

INZ062-063-066-070>080-084-089>092-200500-
SOUTH CENTRAL AND SOUTHEAST INDIANA

CITY           SKY/WX    TMP DP  RH WIND       PRES   REMARKS
BLOOMINGTON    CLEAR     72  69  90 CALM      30.11R FOG
MADISON *+     CLEAR     73  70  88 CALM      30.13S
SEYMOUR +      CLEAR     73  72  94 CALM      30.10R

$$





USA.gov is the U.S. government's official web portal to all federal, state and local government web resources and services.